GW3591 Weather Reports


Display with metric or nautical units.
time (UTC)temp
F
wind
direction
speed
MPH
gust
MPH
rain 1hr
in
rain 24hr
in
rain mn
in
humidity
%
barometer
mb
20260510083003 52 328 0.0 0.0 0.00 0.00 0.00 99 1013.3
20260510082501 51 230 0.0 0.0 0.00 0.00 0.00 99 1013.4
20260510082001 51 180 0.0 1.0 0.00 0.00 0.00 99 1013.3
20260510081456 51 317 0.0 0.0 0.00 0.00 0.00 99 1013.1
20260510080952 51 317 0.0 0.0 0.00 0.00 0.00 99 1012.9
20260510080451 51 101 0.0 0.0 0.00 0.00 0.00 99 1012.9
20260510075948 51 103 0.0 0.0 0.00 0.00 0.00 99 1012.9
20260510075446 51 112 0.0 0.0 0.00 0.00 0.00 99 1013.0
20260510074942 51 165 0.0 0.0 0.00 0.00 0.00 99 1012.8
20260510074440 51 169 0.0 0.0 0.00 0.00 0.00 99 1012.6
20260510073936 51 16 0.0 0.0 0.00 0.00 0.00 99 1012.7
20260510073432 51 16 0.0 0.0 0.00 0.00 0.00 99 1012.5
20260510072928 51 16 0.0 0.0 0.00 0.00 0.00 99 1012.6
20260510072425 51 16 0.0 0.0 0.00 0.00 0.00 99 1012.6
20260510071920 51 16 0.0 0.0 0.00 0.00 0.00 99 1012.6
20260510071418 51 16 0.0 0.0 0.00 0.00 0.00 99 1012.4
20260510070916 51 16 0.0 0.0 0.00 0.00 0.00 99 1012.3
20260510070413 51 16 0.0 0.0 0.00 0.00 0.00 99 1012.4
20260510065908 51 16 0.0 0.0 0.00 0.00 0.00 99 1012.3
20260510065404 51 16 0.0 0.0 0.00 0.00 0.00 99 1012.5
20260510064901 51 16 0.0 0.0 0.00 0.00 0.00 99 1012.3
20260510064359 51 16 0.0 0.0 0.00 0.00 0.00 99 1012.4
20260510063855 52 16 0.0 0.0 0.00 0.00 0.00 99 1012.2
20260510063352 52 16 0.0 0.0 0.00 0.00 0.00 99 1012.0
20260510062848 52 16 0.0 0.0 0.00 0.00 0.00 99 1012.1
20260510062344 52 16 0.0 0.0 0.00 0.00 0.00 99 1012.1
20260510061839 52 16 0.0 0.0 0.00 0.00 0.00 99 1012.1
20260510061336 52 16 0.0 0.0 0.00 0.00 0.00 98 1012.1
20260510060832 53 16 0.0 0.0 0.00 0.00 0.00 98 1012.3
20260510060330 53 16 0.0 0.0 0.00 0.00 0.00 98 1012.4
20260510055827 53 16 0.0 0.0 0.00 0.00 0.00 98 1012.3
20260510055325 53 16 0.0 0.0 0.00 0.00 0.00 98 1012.3
20260510054825 53 16 0.0 0.0 0.00 0.00 0.00 98 1012.4
20260510054320 54 16 0.0 0.0 0.00 0.00 0.00 98 1012.4
20260510053816 54 16 0.0 0.0 0.00 0.00 0.00 98 1012.5
20260510053311 54 16 0.0 0.0 0.00 0.00 0.00 98 1012.4
20260510052808 54 16 0.0 0.0 0.00 0.00 0.00 98 1012.4
20260510052306 54 16 0.0 0.0 0.00 0.00 0.00 98 1012.4
20260510051800 54 16 0.0 0.0 0.00 0.00 0.00 98 1012.3
20260510051257 54 16 0.0 0.0 0.00 0.00 0.00 97 1012.5
20260510050753 54 16 0.0 0.0 0.00 0.00 0.00 97 1012.4
20260510050245 54 16 0.0 0.0 0.00 0.00 0.00 97 1012.5
20260510045742 54 16 0.0 0.0 0.00 0.00 0.00 97 1012.5
20260510045238 54 16 0.0 0.0 0.00 0.00 0.00 97 1012.6
20260510044735 54 16 0.0 0.0 0.00 0.00 0.00 97 1012.5
20260510044233 55 16 0.0 0.0 0.00 0.00 0.00 96 1012.4
20260510043728 55 16 0.0 0.0 0.00 0.00 0.00 96 1012.5
20260510043225 55 16 0.0 0.0 0.00 0.00 0.00 96 1012.5
20260510042722 55 16 0.0 0.0 0.00 0.00 0.00 96 1012.5
20260510042218 55 16 0.0 0.0 0.00 0.00 0.00 95 1012.6
20260510041715 55 16 0.0 0.0 0.00 0.00 0.00 95 1012.6
20260510041213 55 16 0.0 0.0 0.00 0.00 0.00 95 1012.5
20260510040709 55 16 0.0 0.0 0.00 0.00 0.00 95 1012.5
20260510040206 56 16 0.0 0.0 0.00 0.00 0.00 95 1012.6
20260510035702 56 16 0.0 0.0 0.00 0.00 0.00 95 1012.5
20260510035158 56 16 0.0 0.0 0.00 0.00 0.00 94 1012.4
20260510034654 56 16 0.0 0.0 0.00 0.00 0.00 94 1012.5
20260510034151 56 16 0.0 0.0 0.00 0.00 0.00 94 1012.5
20260510033647 56 16 0.0 0.0 0.00 0.00 0.00 93 1012.5
20260510033145 57 16 0.0 0.0 0.00 0.00 0.00 93 1012.3
20260510032641 57 16 0.0 0.0 0.00 0.00 0.00 93 1012.3
20260510032137 57 16 0.0 0.0 0.00 0.00 0.00 93 1012.4
20260510031632 57 16 0.0 0.0 0.00 0.00 0.00 93 1012.6
20260510031129 57 16 0.0 0.0 0.00 0.00 0.00 93 1012.3
20260510030623 57 16 0.0 0.0 0.00 0.00 0.00 92 1012.5
20260510030121 57 16 0.0 0.0 0.00 0.00 0.00 92 1012.3
20260510025618 57 16 0.0 0.0 0.00 0.00 0.00 92 1012.3
20260510025115 57 16 0.0 0.0 0.00 0.00 0.00 92 1012.3
20260510024612 58 16 0.0 0.0 0.00 0.00 0.00 91 1012.2
20260510024108 58 16 0.0 0.0 0.00 0.00 0.00 91 1012.2
20260510023604 58 37 0.0 0.0 0.00 0.00 0.00 91 1012.1
20260510023102 58 37 0.0 0.0 0.00 0.00 0.00 90 1012.2
20260510022602 58 37 0.0 0.0 0.00 0.00 0.00 90 1012.0
20260510022056 59 37 0.0 0.0 0.00 0.00 0.00 89 1012.0
20260510021553 59 37 0.0 0.0 0.00 0.00 0.00 89 1012.2
20260510021050 59 37 0.0 0.0 0.00 0.00 0.00 88 1012.2
20260510020544 59 37 0.0 0.0 0.00 0.00 0.00 88 1012.3
20260510020040 59 37 0.0 0.0 0.00 0.00 0.00 87 1012.3
20260510015536 60 37 0.0 0.0 0.00 0.00 0.00 86 1012.3
20260510015032 60 176 0.0 0.0 0.00 0.00 0.00 86 1012.1
20260510014529 60 18 0.0 0.0 0.00 0.00 0.00 86 1012.0
20260510014026 60 20 0.0 0.0 0.00 0.00 0.00 85 1012.0
20260510013520 61 20 0.0 0.0 0.00 0.00 0.00 84 1011.9
20260510013016 61 351 0.0 0.0 0.00 0.00 0.00 84 1011.9
20260510012511 62 61 0.0 0.0 0.00 0.00 0.00 83 1011.9
20260510012007 62 55 0.0 0.0 0.00 0.00 0.00 82 1011.8
20260510011501 61 71 0.0 0.0 0.00 0.00 0.00 82 1011.5
20260510010957 62 32 0.0 0.0 0.00 0.00 0.00 82 1011.7
20260510010455 62 25 0.0 0.0 0.00 0.00 0.00 82 1011.3
20260510005951 62 46 0.0 0.0 0.00 0.00 0.00 81 1011.3
20260510005447 62 23 0.0 0.0 0.00 0.00 0.00 80 1011.2
20260510004945 62 27 0.0 0.0 0.00 0.00 0.00 80 1011.5
20260510004442 63 28 0.0 0.0 0.00 0.00 0.00 79 1011.5
20260510003940 63 12 0.0 0.0 0.00 0.00 0.00 79 1011.3
20260510003437 64 33 0.0 0.0 0.00 0.00 0.00 78 1011.1
20260510002937 64 36 0.0 0.0 0.00 0.00 0.00 78 1011.1
20260510002433 64 11 0.0 0.0 0.00 0.00 0.00 77 1011.0
20260510001930 65 13 0.0 0.0 0.00 0.00 0.00 76 1011.1
20260510001427 65 12 0.0 0.0 0.00 0.00 0.00 75 1011.3
20260510000925 66 24 0.0 0.0 0.00 0.00 0.00 74 1011.2
20260510000421 66 39 0.0 0.0 0.00 0.00 0.00 73 1010.9
20260509235917 66 356 0.0 0.0 0.00 0.00 0.00 73 1011.0
20260509235409 67 358 0.0 0.0 0.00 0.00 0.00 71 1010.9
20260509234904 67 357 0.0 0.0 0.00 0.00 0.00 70 1011.0
20260509234402 68 357 0.0 0.0 0.00 0.00 0.00 69 1011.1
20260509233900 69 31 0.0 0.0 0.00 0.00 0.00 67 1010.9
20260509233357 69 31 0.0 0.0 0.00 0.00 0.00 66 1010.8
20260509232852 69 351 0.0 0.0 0.00 0.00 0.00 66 1010.7
20260509232350 70 354 0.0 0.0 0.00 0.00 0.00 66 1010.7
20260509231846 71 342 0.0 0.0 0.00 0.00 0.00 63 1010.6
20260509231343 71 65 0.0 0.0 0.00 0.00 0.00 62 1010.6
20260509230835 71 17 0.0 0.0 0.00 0.00 0.00 63 1010.4
20260509230331 70 10 0.0 0.0 0.00 0.00 0.00 64 1010.7
20260509225826 70 101 0.0 1.0 0.00 0.00 0.00 63 1010.6
20260509225324 70 89 0.0 0.0 0.00 0.00 0.00 64 1010.5
20260509224820 71 152 0.0 0.0 0.00 0.00 0.00 63 1010.6
20260509224316 71 64 0.0 0.0 0.00 0.00 0.00 64 1010.6
20260509223812 71 222 0.0 0.0 0.00 0.00 0.00 61 1010.5
20260509223310 72 63 1.0 1.0 0.00 0.00 0.00 60 1010.6
20260509222806 73 29 0.0 1.0 0.00 0.00 0.00 59 1010.6
20260509222306 73 314 0.0 0.0 0.00 0.00 0.00 59 1010.6
20260509221758 73 263 0.0 0.0 0.00 0.00 0.00 60 1010.6
20260509221255 73 187 0.0 0.0 0.00 0.00 0.00 60 1010.7
20260509220750 72 225 0.0 1.0 0.00 0.00 0.00 59 1010.5
20260509220247 72 261 0.0 1.0 0.00 0.00 0.00 58 1010.7
20260509215742 72 163 1.0 1.0 0.00 0.00 0.00 59 1010.7
20260509215239 73 133 0.0 1.0 0.00 0.00 0.00 58 1010.7
20260509214736 72 140 0.0 0.0 0.00 0.00 0.00 58 1010.8
20260509214233 72 123 0.0 1.0 0.00 0.00 0.00 59 1010.8
20260509213730 73 188 0.0 0.0 0.00 0.00 0.00 58 1010.7
20260509213226 72 177 0.0 0.0 0.00 0.00 0.00 59 1010.9
20260509212723 73 235 1.0 2.0 0.00 0.00 0.00 58 1010.8
20260509212220 73 322 0.0 1.0 0.00 0.00 0.00 60 1010.7
20260509211716 71 351 0.0 0.0 0.00 0.00 0.00 60 1010.8
20260509211213 71 217 0.0 1.0 0.00 0.00 0.00 60 1010.7
20260509210709 72 92 0.0 0.0 0.00 0.00 0.00 59 1010.8
20260509210207 72 167 0.0 0.0 0.00 0.00 0.00 60 1010.7
20260509205707 72 219 0.0 0.0 0.00 0.00 0.00 60 1010.5
20260509205206 72 80 1.0 2.0 0.00 0.00 0.00 58 1010.5
20260509204703 73 155 2.0 2.0 0.00 0.00 0.00 58 1010.5
20260509204159 74 2 0.0 0.0 0.00 0.00 0.00 57 1010.4
20260509203655 73 129 0.0 0.0 0.00 0.00 0.00 56 1010.6
20260509203154 72 232 0.0 1.0 0.00 0.00 0.00 58 1010.6
20260509202649 71 132 0.0 0.0 0.00 0.00 0.00 58 1010.6
20260509202144 70 89 0.0 0.0 0.00 0.00 0.00 59 1010.6
20260509201639 71 294 0.0 1.0 0.00 0.00 0.00 59 1010.9
20260509201137 71 260 1.0 1.0 0.00 0.00 0.00 59 1010.8
20260509200633 72 100 0.0 0.0 0.00 0.00 0.00 56 1010.9
20260509200128 71 130 0.0 0.0 0.00 0.00 0.00 58 1011.0
20260509195624 71 191 0.0 1.0 0.00 0.00 0.00 58 1011.0
20260509195119 71 18 1.0 1.0 0.00 0.00 0.00 57 1011.0
20260509194619 71 117 0.0 0.0 0.00 0.00 0.00 57 1011.3
20260509194117 71 16 0.0 0.0 0.00 0.00 0.00 56 1011.1
20260509193612 72 164 0.0 0.0 0.00 0.00 0.00 57 1011.4
20260509193103 71 153 1.0 2.0 0.00 0.00 0.00 56 1011.3
20260509192559 71 57 0.0 0.0 0.00 0.00 0.00 56 1011.5
20260509192049 71 86 0.0 0.0 0.00 0.00 0.00 56 1011.5
20260509191549 71 67 0.0 0.0 0.00 0.00 0.00 55 1011.6
20260509191045 72 141 0.0 0.0 0.00 0.00 0.00 55 1011.6
20260509190541 71 3 0.0 0.0 0.00 0.00 0.00 56 1011.5
20260509190040 70 144 0.0 1.0 0.00 0.00 0.00 56 1011.6
20260509185537 71 259 0.0 1.0 0.00 0.00 0.00 56 1011.5
20260509185033 70 297 0.0 1.0 0.00 0.00 0.00 56 1011.8
20260509184532 72 144 2.0 2.0 0.00 0.00 0.00 54 1011.9
20260509184027 71 36 0.0 0.0 0.00 0.00 0.00 55 1011.8
20260509183522 69 47 1.0 2.0 0.00 0.00 0.00 57 1011.8
20260509183019 68 251 1.0 1.0 0.00 0.00 0.00 60 1011.8
20260509182515 68 319 1.0 1.0 0.00 0.00 0.00 60 1012.1
20260509182012 68 254 1.0 1.0 0.00 0.00 0.00 60 1012.2
20260509181510 68 333 1.0 1.0 0.00 0.00 0.00 59 1012.5
20260509181008 68 82 0.0 0.0 0.00 0.00 0.00 58 1012.5
20260509180502 67 320 0.0 0.0 0.00 0.00 0.00 59 1012.7
20260509180000 67 302 2.0 3.0 0.00 0.00 0.00 60 1012.8
20260509175456 66 326 0.0 0.0 0.00 0.00 0.00 59 1012.5
20260509174953 66 24 1.0 1.0 0.00 0.00 0.00 60 1012.5
20260509174449 66 267 0.0 0.0 0.00 0.00 0.00 59 1012.5
20260509173944 66 317 3.0 4.0 0.00 0.00 0.00 59 1012.6
20260509173439 66 280 0.0 0.0 0.00 0.00 0.00 59 1012.6
20260509172936 66 251 0.0 0.0 0.00 0.00 0.00 60 1012.6
20260509172433 66 302 1.0 2.0 0.00 0.00 0.00 60 1012.6
20260509171929 65 305 1.0 1.0 0.00 0.00 0.00 62 1012.7
20260509171425 65 307 2.0 2.0 0.00 0.00 0.00 62 1012.6
20260509170921 65 252 2.0 2.0 0.00 0.00 0.00 62 1012.6
20260509170417 66 327 3.0 4.0 0.00 0.00 0.00 62 1012.6
20260509165913 66 346 4.0 4.0 0.00 0.00 0.00 62 1012.6
20260509165407 66 315 3.0 4.0 0.00 0.00 0.00 62 1012.9
20260509164903 66 249 2.0 3.0 0.00 0.00 0.00 62 1012.7
20260509164359 67 306 1.0 2.0 0.00 0.00 0.00 60 1012.8
20260509163855 67 326 1.0 1.0 0.00 0.00 0.00 60 1012.8
20260509163352 67 297 0.0 1.0 0.00 0.00 0.00 60 1012.6
20260509162852 68 232 0.0 1.0 0.00 0.00 0.00 59 1012.5
20260509162350 68 299 2.0 2.0 0.00 0.00 0.00 59 1012.7
20260509161846 69 42 0.0 1.0 0.00 0.00 0.00 56 1012.8
20260509161342 69 336 0.0 0.0 0.00 0.00 0.00 57 1012.9
20260509160839 68 352 1.0 1.0 0.00 0.00 0.00 58 1013.0
20260509160334 66 162 0.0 0.0 0.00 0.00 0.00 61 1012.9
20260509155829 66 287 1.0 2.0 0.00 0.00 0.00 61 1012.9
20260509155326 66 266 0.0 0.0 0.00 0.00 0.00 60 1012.9
20260509154823 66 125 2.0 2.0 0.00 0.00 0.00 60 1012.8
20260509154319 66 310 0.0 1.0 0.00 0.00 0.00 61 1013.0
20260509153816 66 128 0.0 0.0 0.00 0.00 0.00 59 1013.1
20260509153313 66 192 0.0 0.0 0.00 0.00 0.00 60 1012.9
20260509152810 66 222 3.0 3.0 0.00 0.00 0.00 59 1013.0
20260509152307 68 158 1.0 2.0 0.00 0.00 0.00 58 1013.1
20260509151803 67 203 0.0 0.0 0.00 0.00 0.00 58 1013.1
20260509151259 66 95 0.0 0.0 0.00 0.00 0.00 60 1013.3
20260509150758 65 288 1.0 1.0 0.00 0.00 0.00 61 1013.2
20260509150255 65 203 1.0 1.0 0.00 0.00 0.00 61 1013.6
20260509145752 65 262 1.0 1.0 0.00 0.00 0.00 61 1013.5
20260509145252 65 166 0.0 0.0 0.00 0.00 0.00 62 1013.6
20260509144749 64 297 0.0 0.0 0.00 0.00 0.00 63 1013.5
20260509144245 64 76 0.0 0.0 0.00 0.00 0.00 63 1013.9
20260509143743 64 159 0.0 1.0 0.00 0.00 0.00 62 1013.7
20260509143240 64 313 0.0 0.0 0.00 0.00 0.00 61 1013.8
20260509142736 64 315 0.0 1.0 0.00 0.00 0.00 62 1013.5
20260509142232 64 294 1.0 2.0 0.00 0.00 0.00 62 1013.6
20260509141728 63 257 2.0 3.0 0.00 0.00 0.00 62 1013.5
20260509141226 64 270 2.0 3.0 0.00 0.00 0.00 62 1013.7
20260509140722 64 286 0.0 0.0 0.00 0.00 0.00 61 1013.8
20260509140222 64 299 0.0 1.0 0.00 0.00 0.00 62 1013.8
20260509135717 64 276 1.0 2.0 0.00 0.00 0.00 62 1013.8
20260509135215 64 248 0.0 0.0 0.00 0.00 0.00 61 1013.7
20260509134711 64 263 2.0 2.0 0.00 0.00 0.00 62 1013.7
20260509134208 63 287 0.0 0.0 0.00 0.00 0.00 64 1013.5
20260509133705 63 354 1.0 2.0 0.00 0.00 0.00 62 1013.7
20260509133202 63 267 0.0 0.0 0.00 0.00 0.00 63 1013.6
20260509132701 63 247 0.0 0.0 0.00 0.00 0.00 63 1013.5
20260509132159 63 21 0.0 1.0 0.00 0.00 0.00 63 1013.6
20260509131655 63 288 1.0 1.0 0.00 0.00 0.00 63 1013.4
20260509131152 62 266 0.0 1.0 0.00 0.00 0.00 63 1013.5
20260509130647 63 141 0.0 1.0 0.00 0.00 0.00 64 1013.3
20260509130144 62 43 0.0 0.0 0.00 0.00 0.00 63 1013.5
20260509125641 62 317 1.0 2.0 0.00 0.00 0.00 64 1013.5
20260509125137 61 243 1.0 1.0 0.00 0.00 0.00 64 1013.6
20260509124634 60 286 0.0 0.0 0.00 0.00 0.00 66 1013.6
20260509124131 60 149 0.0 0.0 0.00 0.00 0.00 65 1013.8
20260509123629 60 138 0.0 0.0 0.00 0.00 0.00 67 1013.6
20260509123125 60 272 0.0 0.0 0.00 0.00 0.00 65 1013.5
20260509122621 60 175 0.0 0.0 0.00 0.00 0.00 66 1013.4
20260509122119 60 39 1.0 1.0 0.00 0.00 0.00 65 1013.5
20260509121615 60 141 0.0 0.0 0.00 0.00 0.00 67 1013.5
20260509121113 59 145 0.0 1.0 0.00 0.00 0.00 68 1013.4
20260509120611 59 14 0.0 0.0 0.00 0.00 0.00 68 1013.5
20260509120109 59 49 0.0 0.0 0.00 0.00 0.00 67 1013.4
20260509115606 59 270 0.0 0.0 0.00 0.00 0.00 67 1013.5
20260509115103 59 136 0.0 1.0 0.00 0.00 0.00 66 1013.4
20260509114601 59 136 0.0 0.0 0.00 0.00 0.00 65 1013.6
20260509114100 59 106 1.0 2.0 0.00 0.00 0.00 65 1013.4
20260509113558 59 13 0.0 0.0 0.00 0.00 0.00 65 1013.1
20260509113055 59 0 0.0 0.0 0.00 0.00 0.00 65 1013.2
20260509112551 58 75 0.0 0.0 0.00 0.00 0.00 66 1013.3
20260509112049 58 343 0.0 0.0 0.00 0.00 0.00 67 1013.0
20260509111546 58 119 0.0 1.0 0.00 0.00 0.00 68 1013.3
20260509111043 58 239 1.0 1.0 0.00 0.00 0.00 68 1013.1
20260509110540 58 113 0.0 0.0 0.00 0.00 0.00 68 1013.2
20260509110037 58 136 0.0 1.0 0.00 0.00 0.00 68 1013.1
20260509105535 58 82 0.0 0.0 0.00 0.00 0.00 67 1013.1
20260509105032 59 115 0.0 0.0 0.00 0.00 0.00 67 1013.0
20260509104529 59 106 1.0 1.0 0.00 0.00 0.00 67 1012.9
20260509104026 59 215 0.0 0.0 0.00 0.00 0.00 67 1012.7
20260509103524 59 138 1.0 1.0 0.00 0.00 0.00 63 1012.9
20260509103022 59 71 0.0 0.0 0.00 0.00 0.00 63 1012.9
20260509102519 58 63 0.0 0.0 0.00 0.00 0.00 63 1012.9
20260509102015 58 150 0.0 1.0 0.00 0.00 0.00 64 1012.9
20260509101512 58 79 0.0 0.0 0.00 0.00 0.00 65 1012.8
20260509101009 58 258 0.0 0.0 0.00 0.00 0.00 65 1012.8
20260509100506 58 96 0.0 0.0 0.00 0.00 0.00 65 1012.7
20260509100004 58 109 0.0 0.0 0.00 0.00 0.00 64 1012.7
20260509095459 58 35 0.0 0.0 0.00 0.00 0.00 66 1012.6
20260509094956 58 134 0.0 0.0 0.00 0.00 0.00 64 1012.7
20260509094447 58 102 0.0 0.0 0.00 0.00 0.00 64 1013.0
20260509093945 58 77 0.0 0.0 0.00 0.00 0.00 63 1012.8
20260509093442 58 44 0.0 0.0 0.00 0.00 0.00 63 1012.6
20260509092940 58 288 0.0 0.0 0.00 0.00 0.00 64 1012.7
20260509092438 58 336 0.0 0.0 0.00 0.00 0.00 64 1012.7
20260509091936 58 262 0.0 0.0 0.00 0.00 0.00 64 1012.7
20260509091433 58 46 0.0 0.0 0.00 0.00 0.00 65 1012.7
20260509090930 58 51 0.0 0.0 0.00 0.00 0.00 64 1013.0
20260509090427 58 318 0.0 0.0 0.00 0.00 0.00 64 1013.0
20260509085925 58 71 0.0 0.0 0.00 0.00 0.00 64 1012.8
20260509085421 58 123 0.0 0.0 0.00 0.00 0.00 63 1013.1
20260509084917 58 265 0.0 0.0 0.00 0.00 0.00 64 1013.0
20260509084415 57 266 0.0 1.0 0.00 0.00 0.00 65 1013.2
20260509083912 57 328 0.0 0.0 0.00 0.00 0.00 64 1013.1
20260509083409 57 281 1.0 1.0 0.00 0.00 0.00 65 1013.2